�N����,����,�~����,�C��,���x,�C��,����,���ϕ���,�ő�u�ԕ���,�ő厞����,���˗�,�I�_���x,�n�����x,�ő啗���N��,DTYPE
"19/10/06","00:10",0.0,19.1,87.5,1009.5,330.2,1.0,1.6,344.5,0.00,17.0,22.0,"00:09:12",1
"19/10/06","00:20",0.0,19.1,87.4,1010.0,328.3,1.2,1.8,330.8,0.00,17.0,22.1,"00:17:04",1
"19/10/06","00:30",0.0,18.8,87.4,1009.5,319.5,1.2,2.0,329.1,0.00,16.7,22.2,"00:25:52",1
"19/10/06","00:40",0.2,18.6,87.7,1009.7,323.7,1.2,1.9,335.1,0.00,16.6,22.2,"00:33:20",1
"19/10/06","00:50",0.0,18.5,87.8,1010.0,322.6,1.0,1.8,331.5,0.00,16.5,22.1,"00:46:00",1
"19/10/06","01:00",0.0,18.2,88.3,1009.7,312.0,1.0,1.6,333.8,0.00,16.3,21.9,"00:56:48",1
"19/10/06","01:10",0.0,18.1,89.1,1010.0,308.1,1.2,1.9,321.9,0.00,16.3,22.0,"01:08:16",1
"19/10/06","01:20",0.0,18.2,89.4,1010.2,296.1,1.0,1.8,315.2,0.00,16.5,21.8,"01:16:24",1
"19/10/06","01:30",0.0,18.3,89.6,1010.0,307.7,1.2,1.7,318.3,0.00,16.6,22.0,"01:23:04",1
"19/10/06","01:40",0.0,18.5,89.6,1010.0,318.8,1.2,1.9,333.8,0.00,16.8,21.8,"01:38:40",1
"19/10/06","01:50",0.0,18.7,89.3,1010.2,327.9,1.5,2.6,328.5,0.00,16.9,21.9,"01:41:12",1
"19/10/06","02:00",0.0,18.8,88.8,1010.4,344.6,1.1,2.2,335.2,0.00,17.0,22.0,"01:51:04",1
"19/10/06","02:10",0.0,18.7,88.6,1010.2,324.2,1.1,1.6,308.8,0.00,16.8,21.8,"02:01:44",1
"19/10/06","02:20",0.0,18.7,88.9,1009.7,310.4,1.1,1.4,323.5,0.00,16.9,22.0,"02:10:24",1
"19/10/06","02:30",0.0,18.7,89.0,1010.0,307.8,1.2,2.4,324.9,0.00,16.9,21.7,"02:25:52",1
"19/10/06","02:40",0.0,18.8,88.8,1010.2,328.1,1.3,2.2,327.0,0.00,17.0,21.6,"02:33:12",1
"19/10/06","02:50",0.0,18.8,88.6,1010.2,307.2,0.8,1.6,319.4,0.00,16.9,21.6,"02:41:12",1
"19/10/06","03:00",0.0,18.6,88.8,1010.2,310.8,1.0,1.6,322.7,0.00,16.8,21.7,"02:53:52",1
"19/10/06","03:10",0.0,18.6,89.1,1010.2,324.8,1.0,1.6,319.7,0.00,16.8,21.7,"03:07:20",1
"19/10/06","03:20",0.0,18.6,89.3,1010.4,326.0,1.0,1.6,322.3,0.00,16.8,21.7,"03:11:52",1
"19/10/06","03:30",0.0,18.6,89.0,1010.2,307.2,0.8,1.6,337.8,0.00,16.8,21.7,"03:21:20",1
"19/10/06","03:40",0.0,18.6,89.4,1010.7,321.6,1.1,1.8,335.4,0.00,16.9,21.7,"03:33:36",1
"19/10/06","03:50",0.0,18.8,89.0,1010.4,334.1,1.1,2.1,325.9,0.00,17.0,21.5,"03:42:08",1
"19/10/06","04:00",0.0,18.9,88.8,1010.4,328.7,1.2,2.2,323.9,0.00,17.1,21.7,"03:51:28",1
"19/10/06","04:10",0.0,19.0,88.7,1010.9,327.1,1.5,2.1,325.0,0.00,17.1,21.8,"04:05:20",1
"19/10/06","04:20",0.0,19.1,88.3,1010.7,318.6,1.6,2.7,332.1,0.00,17.2,21.6,"04:10:40",1
"19/10/06","04:30",0.0,19.2,87.9,1010.7,328.7,1.6,2.7,325.8,0.00,17.2,21.7,"04:29:36",1
"19/10/06","04:40",0.0,19.2,87.6,1011.2,329.2,1.6,3.1,341.5,0.00,17.1,21.6,"04:31:04",1
"19/10/06","04:50",0.0,19.2,87.6,1010.9,327.9,1.2,2.4,326.5,0.00,17.1,21.6,"04:49:12",1
"19/10/06","05:00",0.0,19.3,87.6,1011.2,321.1,1.0,1.7,333.5,0.00,17.2,21.9,"04:59:04",1
"19/10/06","05:10",0.0,19.4,87.4,1011.2,302.5,1.1,2.2,317.3,0.00,17.3,21.7,"05:02:16",1
"19/10/06","05:20",0.0,19.4,87.3,1011.2,311.4,1.1,1.7,320.1,0.00,17.3,21.5,"05:18:32",1
"19/10/06","05:30",0.0,19.4,87.2,1011.2,312.6,0.8,2.9,352.8,0.00,17.3,21.8,"05:29:04",1
"19/10/06","05:40",0.0,19.5,87.1,1011.2,317.6,1.3,2.9,336.8,0.00,17.3,21.8,"05:39:12",1
"19/10/06","05:50",0.0,19.6,86.9,1011.6,327.2,1.7,3.5,338.3,0.00,17.4,21.6,"05:46:08",1
"19/10/06","06:00",0.0,19.6,86.7,1011.4,322.7,1.6,3.3,325.7,0.00,17.4,21.6,"05:52:56",1
"19/10/06","06:10",0.0,19.7,86.6,1011.4,309.8,1.3,3.2,331.2,0.00,17.4,21.5,"06:00:08",1
"19/10/06","06:20",0.0,19.6,86.7,1011.4,293.3,1.0,1.8,246.4,0.00,17.4,21.7,"06:11:44",1
"19/10/06","06:30",0.0,19.6,86.7,1011.2,318.3,1.1,2.0,341.8,0.00,17.4,21.8,"06:23:36",1
"19/10/06","06:40",0.0,19.5,87.1,1011.9,314.9,1.0,1.9,343.9,0.00,17.3,21.6,"06:34:40",1
"19/10/06","06:50",0.0,19.5,87.4,1011.6,325.5,1.1,1.8,334.1,0.00,17.4,21.5,"06:44:56",1
"19/10/06","07:00",0.0,19.6,87.6,1012.1,330.8,1.2,2.6,345.9,0.00,17.5,21.7,"06:56:48",1
"19/10/06","07:10",0.0,19.7,87.3,1012.3,316.6,1.5,4.0,342.0,0.00,17.6,21.7,"07:05:12",1
"19/10/06","07:20",0.0,19.8,87.1,1012.3,314.3,1.6,2.9,304.3,0.01,17.6,21.6,"07:19:12",1
"19/10/06","07:30",0.2,19.9,86.9,1012.8,328.6,2.3,3.9,331.3,0.01,17.7,21.7,"07:24:24",1
"19/10/06","07:40",0.0,20.2,86.7,1012.8,325.6,2.0,5.0,342.9,0.02,18.0,21.8,"07:30:24",1
"19/10/06","07:50",0.0,20.4,86.1,1013.0,330.5,1.8,3.1,329.7,0.01,18.0,21.9,"07:46:24",1
"19/10/06","08:00",0.0,20.4,85.6,1013.0,333.6,1.8,4.0,335.2,0.01,17.9,21.6,"07:56:56",1
"19/10/06","08:10",0.0,21.0,83.9,1013.3,332.0,2.1,3.5,335.4,0.07,18.2,21.7,"08:09:04",1
"19/10/06","08:20",0.0,21.3,79.9,1013.3,327.7,2.1,4.1,338.1,0.07,17.7,21.8,"08:12:48",1
"19/10/06","08:30",0.0,22.1,76.1,1013.3,344.7,2.0,4.3,14.7,0.14,17.7,21.9,"08:24:56",1
"19/10/06","08:40",0.0,21.8,73.5,1013.3,354.2,2.0,3.7,56.2,0.11,16.9,22.0,"08:33:12",1
"19/10/06","08:50",0.0,22.4,72.8,1013.3,352.9,1.7,4.5,353.7,0.13,17.3,22.2,"08:43:36",1
"19/10/06","09:00",0.0,22.5,69.7,1013.3,28.3,2.5,7.7,44.7,0.22,16.7,22.1,"08:52:24",1
"19/10/06","09:10",0.0,22.7,70.4,1013.5,7.4,1.7,4.4,55.7,0.20,17.1,22.2,"09:04:00",1
"19/10/06","09:20",0.0,22.9,70.7,1013.3,20.2,1.6,3.5,343.7,0.29,17.3,22.2,"09:15:44",1
"19/10/06","09:30",0.0,23.1,70.6,1013.5,328.2,2.1,6.4,342.7,0.37,17.5,22.5,"09:23:12",1
"19/10/06","09:40",0.0,22.6,69.0,1013.8,13.7,2.0,4.9,5.3,0.23,16.7,22.6,"09:38:40",1
"19/10/06","09:50",0.0,22.4,70.5,1013.8,12.7,1.8,3.7,8.4,0.14,16.8,22.7,"09:43:36",1
"19/10/06","10:00",0.0,22.2,70.4,1013.8,7.6,2.2,4.9,8.2,0.14,16.6,22.7,"09:52:16",1
"19/10/06","10:10",0.0,22.4,69.6,1013.8,34.5,2.3,4.7,0.5,0.22,16.6,22.9,"10:04:08",1
"19/10/06","10:20",0.0,23.1,69.1,1013.8,20.0,2.1,5.8,344.4,0.33,17.2,22.9,"10:17:44",1
"19/10/06","10:30",0.0,23.3,67.8,1013.3,334.8,1.5,3.9,336.0,0.36,17.1,22.9,"10:22:16",1
"19/10/06","10:40",0.0,23.2,64.4,1013.3,17.1,2.1,4.9,119.5,0.44,16.2,23.3,"10:30:40",1
"19/10/06","10:50",0.0,23.7,64.4,1013.5,19.2,2.7,7.9,21.0,0.44,16.6,23.2,"10:44:16",1
"19/10/06","11:00",0.0,23.0,63.9,1013.5,2.5,2.5,5.4,34.9,0.35,15.8,23.7,"10:54:32",1
"19/10/06","11:10",0.0,22.7,65.1,1013.8,17.4,2.6,6.4,54.9,0.29,15.9,23.6,"11:00:24",1
"19/10/06","11:20",0.0,23.0,65.1,1013.5,7.1,2.5,5.4,345.6,0.33,16.1,23.7,"11:15:04",1
"19/10/06","11:30",0.0,23.1,66.9,1013.3,353.8,2.3,4.8,333.1,0.37,16.7,23.8,"11:27:52",1
"19/10/06","11:40",0.0,23.8,63.7,1013.5,347.9,2.3,4.1,329.2,0.49,16.6,24.0,"11:31:04",1
"19/10/06","11:50",0.0,23.3,61.9,1013.3,9.2,2.8,5.4,44.0,0.36,15.6,24.0,"11:47:04",1
"19/10/06","12:00",0.0,23.3,63.3,1013.5,339.9,2.5,5.5,312.0,0.35,16.0,24.2,"11:58:08",1
"19/10/06","12:10",0.0,23.4,62.7,1013.5,1.7,1.8,4.8,336.1,0.29,15.9,24.2,"12:01:28",1
"19/10/06","12:20",0.0,23.4,62.8,1013.5,336.7,3.4,8.0,349.4,0.38,16.0,24.3,"12:11:20",1
"19/10/06","12:30",0.0,23.7,61.9,1013.3,347.7,2.2,4.3,334.3,0.33,16.0,24.3,"12:28:40",1
"19/10/06","12:40",0.0,23.5,59.7,1013.3,348.0,2.7,7.4,289.5,0.38,15.3,24.4,"12:32:16",1
"19/10/06","12:50",0.2,23.4,60.7,1013.0,354.2,2.1,5.6,327.4,0.27,15.4,24.3,"12:49:12",1
"19/10/06","13:00",0.0,24.0,57.9,1012.8,4.7,2.0,5.9,346.1,0.39,15.2,24.4,"12:59:52",1
"19/10/06","13:10",0.0,24.0,59.1,1012.8,6.9,2.5,4.8,25.4,0.36,15.6,24.6,"13:06:16",1
"19/10/06","13:20",0.0,24.8,57.9,1012.1,7.5,2.1,4.8,27.5,0.54,16.0,24.7,"13:13:20",1
"19/10/06","13:30",0.0,24.1,58.2,1012.1,2.9,2.2,8.0,345.9,0.41,15.4,24.9,"13:21:36",1
"19/10/06","13:40",0.0,23.9,59.2,1012.3,19.5,2.2,4.4,344.4,0.37,15.5,25.1,"13:39:36",1
"19/10/06","13:50",0.0,24.5,59.1,1011.9,348.5,2.3,5.4,347.4,0.45,16.0,25.0,"13:41:36",1
"19/10/06","14:00",0.0,24.4,58.4,1012.1,353.4,2.2,5.4,336.8,0.48,15.8,25.2,"13:58:48",1
"19/10/06","14:10",0.0,24.1,57.3,1012.1,353.5,2.7,5.7,350.1,0.45,15.2,25.2,"14:03:36",1
"19/10/06","14:20",0.0,24.3,57.3,1011.9,334.8,3.0,6.0,315.7,0.45,15.4,25.2,"14:11:12",1
"19/10/06","14:30",0.0,23.9,57.6,1012.1,344.1,2.8,8.3,339.0,0.35,15.1,25.4,"14:24:08",1
"19/10/06","14:40",0.0,23.2,59.2,1011.9,346.4,3.2,6.2,327.0,0.25,14.8,25.4,"14:38:16",1
"19/10/06","14:50",0.0,23.7,59.2,1012.1,335.0,3.4,9.3,343.7,0.33,15.3,25.2,"14:40:24",1
"19/10/06","15:00",0.0,23.3,59.9,1012.3,337.6,3.9,7.5,338.6,0.31,15.1,25.2,"14:52:56",1
"19/10/06","15:10",0.0,23.6,60.8,1011.9,345.2,2.5,8.2,328.1,0.31,15.6,25.5,"15:00:40",1
"19/10/06","15:20",0.0,23.5,60.2,1012.1,336.1,2.1,4.4,337.8,0.28,15.4,25.4,"15:10:48",1
"19/10/06","15:30",0.0,23.1,59.6,1011.9,335.8,3.0,6.0,333.0,0.31,14.9,25.3,"15:26:00",1
"19/10/06","15:40",0.0,22.8,60.9,1012.1,335.5,2.5,6.2,329.0,0.18,14.9,25.2,"15:31:28",1
"19/10/06","15:50",0.0,23.1,59.6,1012.3,333.1,3.0,6.2,344.3,0.22,14.9,25.2,"15:48:08",1
"19/10/06","16:00",0.0,22.9,59.2,1012.8,330.0,2.7,5.2,343.0,0.21,14.6,25.2,"15:54:48",1
"19/10/06","16:10",0.0,22.6,60.8,1012.8,335.9,2.7,8.1,314.9,0.17,14.7,25.1,"16:03:36",1
"19/10/06","16:20",0.0,22.4,61.3,1013.0,339.3,2.7,8.0,340.6,0.13,14.6,24.9,"16:19:44",1
"19/10/06","16:30",0.0,22.6,59.7,1013.0,337.6,2.5,4.2,345.0,0.12,14.4,24.9,"16:29:20",1
"19/10/06","16:40",0.0,22.0,61.2,1013.0,330.1,3.0,5.8,343.0,0.07,14.2,24.7,"16:36:08",1
"19/10/06","16:50",0.0,21.7,62.2,1013.5,340.1,2.7,6.0,342.7,0.06,14.2,24.5,"16:42:32",1
"19/10/06","17:00",0.0,21.7,62.2,1013.3,333.7,2.0,4.7,309.6,0.06,14.2,24.6,"16:50:40",1
"19/10/06","17:10",0.0,21.5,63.1,1014.0,341.0,1.8,5.1,334.5,0.04,14.2,23.9,"17:04:56",1
"19/10/06","17:20",0.0,21.4,64.6,1014.0,344.7,1.7,3.6,339.6,0.03,14.5,24.1,"17:15:36",1
"19/10/06","17:30",0.0,21.1,65.7,1014.0,343.4,1.6,3.4,357.4,0.02,14.5,24.1,"17:23:12",1
"19/10/06","17:40",0.0,20.9,66.2,1014.2,334.1,1.3,2.4,341.6,0.01,14.4,24.1,"17:39:44",1
"19/10/06","17:50",0.0,20.5,67.0,1014.9,309.7,1.1,2.6,339.0,0.00,14.2,24.0,"17:48:56",1
"19/10/06","18:00",0.0,20.4,67.4,1014.7,316.3,1.1,3.2,352.7,0.00,14.2,23.7,"17:56:48",1
"19/10/06","18:10",0.2,20.1,68.6,1014.9,310.6,1.1,2.7,345.7,0.00,14.2,23.7,"18:04:40",1
"19/10/06","18:20",0.0,20.0,69.5,1014.9,344.9,1.2,1.9,338.5,0.00,14.3,23.5,"18:12:24",1
"19/10/06","18:30",0.0,19.7,70.8,1015.2,357.1,1.0,2.0,343.0,0.00,14.3,23.4,"18:24:24",1
"19/10/06","18:40",0.0,19.2,73.7,1015.2,335.7,1.0,1.9,340.6,0.00,14.4,23.2,"18:34:16",1
"19/10/06","18:50",0.0,18.7,76.7,1015.4,334.7,1.2,2.2,336.9,0.00,14.6,23.2,"18:45:44",1
"19/10/06","19:00",0.0,18.4,78.7,1015.6,314.8,1.2,2.4,335.2,0.00,14.7,23.0,"18:57:20",1
"19/10/06","19:10",0.0,18.4,79.7,1015.4,332.3,1.6,2.6,338.4,0.00,14.9,23.0,"19:09:20",1
"19/10/06","19:20",0.0,18.5,79.9,1015.6,332.2,1.6,3.5,340.0,0.00,15.0,22.9,"19:13:12",1
"19/10/06","19:30",0.0,18.6,79.3,1015.6,324.1,2.0,3.7,325.9,0.00,15.0,22.8,"19:25:20",1
"19/10/06","19:40",0.0,18.8,77.9,1015.6,328.1,1.5,2.5,338.1,0.00,14.9,22.9,"19:38:40",1
"19/10/06","19:50",0.0,18.7,77.8,1015.9,330.4,1.3,2.5,341.5,0.00,14.8,22.7,"19:49:12",1
"19/10/06","20:00",0.0,18.5,78.1,1015.6,329.7,1.2,2.9,307.1,0.00,14.7,22.7,"19:53:04",1
"19/10/06","20:10",0.0,18.0,79.3,1015.9,314.6,1.2,2.4,338.9,0.00,14.4,22.5,"20:07:28",1
"19/10/06","20:20",0.0,17.8,80.4,1015.9,293.4,1.1,2.1,320.4,0.00,14.4,22.3,"20:18:32",1
"19/10/06","20:30",0.0,17.7,81.0,1016.1,320.5,1.6,2.7,324.8,0.00,14.4,22.4,"20:22:56",1
"19/10/06","20:40",0.0,17.6,81.7,1016.1,318.3,1.7,2.8,318.8,0.00,14.5,22.3,"20:30:56",1
"19/10/06","20:50",0.0,17.4,82.3,1016.1,307.6,1.5,2.6,316.8,0.00,14.4,22.1,"20:46:24",1
"19/10/06","21:00",0.0,17.5,82.3,1016.4,310.8,1.6,2.6,319.4,0.00,14.5,22.0,"20:54:56",1
"19/10/06","21:10",0.0,17.4,81.2,1016.4,299.6,1.1,1.8,331.9,0.00,14.2,22.0,"21:00:32",1
"19/10/06","21:20",0.0,16.8,82.0,1016.4,294.4,0.6,1.3,323.8,0.00,13.8,21.8,"21:19:20",1
"19/10/06","21:30",0.0,16.5,83.5,1016.1,315.5,0.7,1.4,341.1,0.00,13.7,21.7,"21:26:00",1
"19/10/06","21:40",0.0,16.2,84.5,1015.9,317.1,1.2,1.9,314.4,0.00,13.6,21.7,"21:33:36",1
"19/10/06","21:50",0.0,15.9,86.5,1016.1,312.3,1.1,1.7,325.6,0.00,13.7,21.7,"21:40:16",1
"19/10/06","22:00",0.0,15.8,87.1,1016.1,296.5,1.0,1.8,303.9,0.00,13.7,21.4,"21:52:24",1
"19/10/06","22:10",0.0,15.6,87.6,1016.4,312.7,0.6,1.4,333.9,0.00,13.6,21.5,"22:04:40",1
"19/10/06","22:20",0.0,15.4,88.7,1016.1,312.0,0.8,1.7,331.0,0.00,13.6,21.2,"22:16:00",1
"19/10/06","22:30",0.0,15.3,88.8,1015.9,297.2,0.7,1.6,327.5,0.00,13.5,21.4,"22:22:16",1
"19/10/06","22:40",0.0,15.1,89.2,1015.9,315.0,0.6,1.1,326.0,0.00,13.4,21.2,"22:32:32",1
"19/10/06","22:50",0.0,14.8,90.0,1016.1,288.6,0.7,1.0,305.9,0.00,13.2,21.1,"22:42:32",1
"19/10/06","23:00",0.0,14.8,91.0,1016.4,307.2,1.0,1.8,324.6,0.00,13.4,21.1,"22:53:44",1
"19/10/06","23:10",0.0,14.6,90.9,1016.4,280.5,0.6,1.0,243.7,0.00,13.2,21.0,"23:03:12",1
"19/10/06","23:20",0.0,14.5,91.9,1016.1,276.9,0.6,1.4,326.7,0.00,13.2,21.0,"23:11:12",1
"19/10/06","23:30",0.0,14.5,91.5,1016.1,316.0,0.6,1.4,320.2,0.00,13.2,21.0,"23:26:24",1
"19/10/06","23:40",0.0,14.5,92.4,1016.4,289.9,0.6,1.1,311.8,0.00,13.3,20.8,"23:31:52",1
"19/10/06","23:50",0.0,14.6,93.1,1016.6,305.4,1.0,1.9,337.0,0.00,13.5,20.7,"23:49:04",1
"19/10/06","24:00",0.0,14.8,92.9,1016.4,328.9,1.2,1.8,319.0,0.00,13.7,20.9,"23:50:08",1
